Location: *
(47.7167°N, 1.7333°W)
Time: 08:34:04
(UTC+00:00)

ARGOS - Pass Details

Date: 09 April 2020
Orbit: 820 x 834 km, 98.5° (Epoch: 24 May)

Event Time Altitude Azimuth Distance (km) Brightness Sun altitude
Rises 19:22:57 0° 156° (SSE) 3,358 5.9 -6.3°
Reaches altitude 10° 19:25:18 10° 154° (SSE) 2,427 5.2 -6.7°
Maximum altitude 19:30:38 69° 72° (ENE) 885 3.2 -7.6°
Drops below altitude 10° 19:35:59 10° 350° (N) 2,435 6.1 -8.4°
Sets 19:38:21 0° 348° (NNW) 3,370 6.8 -8.8°
